Date String (YYYY-MM-DD hh:mm:ss) UTC,Instrument flags,Ambient pressure (hPa),Sample flow (lpm),Bypass flow (lpm),Sample temperature (°C),Ambient temperature (°C),ASC tube jacket temperature (°C),LED temperature (°C),Box temperature (°C),Sample RH (%),Span deviation,Mass concentration (μg/m³),Mass concentration (μg/m³),Mass concentration (μg/m³)
DateTimeUTC,F1_M11,P_M11,Q1_M11,Q2_M11,T1_M11,T2_M11,T3_M11,T4_M11,T5_M11,U1_M11,ZSPAN_M11,X2_M11,X0_M11,X1_M11
2022-12-30 06:00:00,,0820.4,4.99,0.00,22.2,22.2,00.0,30.9,24.0,07.1,0000.0,0000.55,0000.89,0000.46
2022-12-30 06:01:00,,0820.4,5.02,0.00,22.1,21.6,00.0,30.9,23.9,07.1,0000.0,0000.54,0000.91,0000.46
2022-12-30 06:02:00,,0820.3,5.01,0.00,22.1,21.3,00.0,30.9,23.8,07.1,0000.0,0000.54,0000.90,0000.45
2022-12-30 06:03:00,,0820.3,4.98,0.00,22.0,21.0,00.0,30.9,23.6,07.0,0000.0,0000.54,0000.89,0000.44
2022-12-30 06:04:00,,0820.3,4.98,0.00,22.0,20.7,00.0,30.9,23.5,07.1,0000.0,0000.53,0000.86,0000.43
2022-12-30 06:05:00,,0820.3,4.98,0.00,21.9,20.2,00.0,30.9,23.3,07.2,0000.0,0000.51,0000.82,0000.42
2022-12-30 06:06:00,,0820.3,4.98,0.00,21.8,19.9,00.0,30.8,23.2,07.3,0000.0,0000.50,0000.81,0000.42
2022-12-30 06:07:00,,0820.2,5.00,0.00,21.7,19.8,00.0,30.8,23.1,07.2,0000.0,0000.50,0000.81,0000.42
2022-12-30 06:08:00,,0820.2,5.00,0.00,21.6,19.7,00.0,30.8,23.0,07.6,0000.0,0000.51,0000.83,0000.43
2022-12-30 06:09:00,,0820.2,5.00,0.00,21.7,20.6,00.0,30.7,23.2,07.6,0000.0,0000.52,0000.86,0000.43
2022-12-30 06:10:00,,0820.2,4.98,0.00,21.8,21.8,00.0,30.7,23.5,07.6,0000.0,0000.53,0000.88,0000.43
2022-12-30 06:11:00,,0820.2,5.00,0.00,21.9,22.5,00.0,30.7,23.8,07.5,0000.0,0000.52,0000.80,0000.44
2022-12-30 06:12:00,,0820.3,4.99,0.00,22.0,22.0,00.0,30.7,23.8,07.3,0000.0,0000.51,0000.71,0000.44
2022-12-30 06:13:00,,0820.3,5.01,0.00,21.9,21.3,00.0,30.8,23.6,07.3,0000.0,0000.50,0000.70,0000.44
2022-12-30 06:14:00,,0820.3,4.97,0.00,21.9,20.8,00.0,30.8,23.4,07.3,0000.0,0000.49,0000.69,0000.44
2022-12-30 06:15:00,,0820.3,4.98,0.00,21.8,20.2,00.0,30.8,23.2,07.3,0000.0,0000.52,0000.72,0000.44
2022-12-30 06:16:00,,0820.3,5.02,0.00,21.7,20.0,00.0,30.7,23.1,07.2,0000.0,0000.52,0000.73,0000.45
2022-12-30 06:17:00,,0820.3,5.01,0.00,21.6,19.9,00.0,30.7,23.1,07.3,0000.0,0000.54,0000.75,0000.45
2022-12-30 06:18:00,,0820.3,5.03,0.00,21.6,19.8,00.0,30.7,23.0,07.4,0000.0,0000.55,0000.79,0000.45
2022-12-30 06:19:00,,0820.3,5.00,0.00,21.5,19.7,00.0,30.6,23.0,07.4,0000.0,0000.55,0000.78,0000.44
2022-12-30 06:20:00,,0820.4,5.03,0.00,21.5,20.3,00.0,30.6,23.1,07.4,0000.0,0000.55,0000.75,0000.44
2022-12-30 06:21:00,,0820.4,5.03,0.00,21.6,21.5,00.0,30.5,23.4,07.4,0000.0,0000.54,0000.74,0000.43
2022-12-30 06:22:00,,0820.3,5.02,0.00,21.8,22.3,00.0,30.6,23.7,07.3,0000.0,0000.53,0000.73,0000.43
2022-12-30 06:23:00,,0820.3,4.95,0.00,21.8,22.0,00.0,30.6,23.7,07.3,0000.0,0000.56,0000.78,0000.43
2022-12-30 06:24:00,,0820.3,4.98,0.00,21.8,21.3,00.0,30.6,23.5,07.3,0000.0,0000.56,0000.78,0000.43
2022-12-30 06:25:00,,0820.2,5.00,0.00,21.8,20.8,00.0,30.7,23.3,07.4,0000.0,0000.56,0000.80,0000.43
2022-12-30 06:26:00,,0820.2,5.02,0.00,21.7,20.4,00.0,30.6,23.2,07.5,0000.0,0000.57,0000.86,0000.43
2022-12-30 06:27:00,,0820.3,5.02,0.00,21.6,19.9,00.0,30.6,23.0,07.6,0000.0,0000.58,0000.87,0000.44
2022-12-30 06:28:00,,0820.2,4.99,0.00,21.5,19.5,00.0,30.6,22.9,07.4,0000.0,0000.58,0000.88,0000.43
2022-12-30 06:29:00,,0820.2,4.98,0.00,21.4,19.2,00.0,30.6,22.7,07.3,0000.0,0000.57,0000.86,0000.44
2022-12-30 06:30:00,,0820.2,4.98,0.00,21.3,18.9,00.0,30.5,22.6,07.3,0000.0,0000.60,0000.94,0000.44
2022-12-30 06:31:00,,0820.2,5.00,0.00,21.3,19.5,00.0,30.5,22.7,07.3,0000.0,0000.62,0000.98,0000.45
2022-12-30 06:32:00,,0820.3,5.03,0.00,21.4,21.0,00.0,30.4,23.1,07.4,0000.0,0000.64,0001.01,0000.46
2022-12-30 06:33:00,,0820.3,5.00,0.00,21.6,22.3,00.0,30.4,23.5,07.4,0000.0,0000.65,0001.03,0000.46
2022-12-30 06:34:00,,0820.3,4.96,0.00,21.7,22.2,00.0,30.5,23.6,07.3,0000.0,0000.63,0001.00,0000.47
2022-12-30 06:35:00,,0820.3,5.02,0.00,21.7,21.7,00.0,30.5,23.5,07.4,0000.0,0000.63,0001.00,0000.47
2022-12-30 06:36:00,,0820.2,5.02,0.00,21.7,21.3,00.0,30.5,23.5,07.4,0000.0,0000.63,0000.97,0000.47
2022-12-30 06:37:00,,0820.3,4.97,0.00,21.7,21.0,00.0,30.6,23.4,07.4,0000.0,0000.60,0000.93,0000.47
2022-12-30 06:38:00,,0820.3,4.97,0.00,21.7,20.7,00.0,30.6,23.4,07.4,0000.0,0000.62,0001.02,0000.46
2022-12-30 06:39:00,,0820.3,5.00,0.00,21.7,20.6,00.0,30.6,23.3,07.3,0000.0,0000.60,0001.00,0000.46
2022-12-30 06:40:00,,0820.2,5.03,0.00,21.7,20.4,00.0,30.6,23.3,07.2,0000.0,0000.62,0001.03,0000.47
2022-12-30 06:41:00,,0820.3,4.98,0.00,21.7,20.3,00.0,30.6,23.3,07.2,0000.0,0000.61,0001.00,0000.47
2022-12-30 06:42:00,,0820.2,4.99,0.00,21.7,20.2,00.0,30.6,23.3,07.3,0000.0,0000.60,0001.01,0000.47
2022-12-30 06:43:00,,0820.3,4.97,0.00,21.7,20.2,00.0,30.6,23.3,07.3,0000.0,0000.59,0000.99,0000.47
2022-12-30 06:44:00,,0820.2,4.97,0.00,21.6,20.2,00.0,30.5,23.2,07.3,0000.0,0000.60,0001.02,0000.46
2022-12-30 06:45:00,,0820.3,5.00,0.00,21.6,20.1,00.0,30.5,23.2,07.3,0000.0,0000.61,0001.03,0000.47
2022-12-30 06:46:00,,0820.3,5.01,0.00,21.6,20.6,00.0,30.5,23.3,07.3,0000.0,0000.64,0001.10,0000.47
2022-12-30 06:47:00,,0820.3,5.03,0.00,21.8,21.8,00.0,30.5,23.6,07.2,0000.0,0000.66,0001.16,0000.47
2022-12-30 06:48:00,,0820.3,4.97,0.00,21.9,22.5,00.0,30.5,23.9,07.2,0000.0,0000.68,0001.21,0000.47
2022-12-30 06:49:00,,0820.3,4.98,0.00,22.0,22.2,00.0,30.6,23.9,07.2,0000.0,0000.66,0001.09,0000.47
2022-12-30 06:50:00,,0820.3,5.02,0.00,22.0,21.8,00.0,30.6,23.8,07.1,0000.0,0000.67,0001.09,0000.48
2022-12-30 06:51:00,,0820.3,5.00,0.00,22.0,21.5,00.0,30.7,23.8,07.1,0000.0,0000.67,0001.10,0000.48
2022-12-30 06:52:00,,0820.3,4.99,0.00,22.0,21.2,00.0,30.7,23.8,07.1,0000.0,0000.65,0001.07,0000.47
2022-12-30 06:53:00,,0820.3,4.98,0.00,22.0,21.1,00.0,30.7,23.7,07.0,0000.0,0000.63,0001.00,0000.47
2022-12-30 06:54:00,,0820.3,4.98,0.00,22.0,20.9,00.0,30.7,23.7,07.0,0000.0,0000.62,0000.99,0000.47
2022-12-30 06:55:00,,0820.3,5.03,0.00,22.0,20.8,00.0,30.7,23.7,06.9,0000.0,0000.60,0001.49,0000.47
2022-12-30 06:56:00,,0820.2,5.03,0.00,22.0,20.7,00.0,30.7,23.7,06.9,0000.0,0000.59,0001.50,0000.47
2022-12-30 06:57:00,,0820.3,4.98,0.00,22.0,20.7,00.0,30.7,23.7,06.9,0000.0,0000.58,0001.47,0000.46
2022-12-30 06:58:00,,0820.2,4.99,0.00,22.0,20.7,00.0,30.8,23.7,06.9,0000.0,0000.55,0001.42,0000.45
2022-12-30 06:59:00,,0820.3,4.98,0.00,22.0,20.7,00.0,30.8,23.7,06.9,0000.0,0000.55,0001.50,0000.45
